Location: Arpaise
(41.0333°N, 14.7333°E)
Time: 17:13:03
(UTC+00:00)

Cosmos 1455 - Pass Details

Date: 05 July 2020
Orbit: 500 x 521 km, 82.5° (Epoch: 10 August)

Event Time Altitude Azimuth Distance (km) Brightness Sun altitude
Rises 20:07:44 0° 348° (NNW) 2,643 6.9 -14.1°
Reaches altitude 10° 20:09:53 10° 344° (NNW) 1,755 5.9 -14.3°
Maximum altitude 20:13:40 58° 265° (W) 608 2.7 -14.8°
Enters shadow 20:16:33 16° 189° (S) 1,393 4.0 -15.2°
